Weather History for KMSS - March, 2012

Change the Weather History Date:

Sunday, March 4, 2012

  Actual Average Record
Temperature  
Mean Temperature 21 °F 23 °F  
Max Temperature 34 °F 33 °F 58 °F (1964)
Min Temperature 8 °F 13 °F -25 °F (1950)
Degree Days  
Heating Degree Days 44 42  
Month to date heating degree days 143 171  
Since 1 July heating degree days 4683 6158  
Cooling Degree Days 0 0  
Month to date cooling degree days 0 0  
Year to date cooling degree days 0 0  
Moisture  
Dew Point 12 °F    
Average Humidity 69    
Maximum Humidity 82    
Minimum Humidity 56    
Precipitation  
Precipitation T in 0.06 in 1.56 in (1971)
Month to date precipitation 0.18 0.26  
Year to date precipitation 2.87 4.21  
Sea Level Pressure  
Sea Level Pressure 29.67 in    
Wind  
Wind Speed 10 mph (WNW)    
Max Wind Speed 20 mph    
Max Gust Speed 29 mph    
Visibility 7 miles    
Events Snow    
T = Trace of Precipitation, MM = Missing Value Source: NWS Daily Summary

Daily Weather History Graph

Daily Weather History Graph

Search for Another Location

Airport or City:

Trip Planner

Search our weather history database for the weather conditions in past years. The results will help you decide how hot, cold, wet, or windy it might be!

Date:

Astronomy

Mar. 04, 2012 Rise Set
Actual Time 6:31 AM EST 5:51 PM EST
Civil Twilight 6:01 AM EST 6:20 PM EST
Nautical Twilight 5:27 AM EST 6:54 PM EST
Astronomical Twilight 4:53 AM EST 7:29 PM EST
Moon 1:52 PM EST (3/4) 3:58 AM EST (3/4)
Length of Visible Light 12h 19m
Length of Day
11h 20m
Waxing Gibbous, 83% of the Moon is Illuminated
Mar 4
Waxing Gibbous
Mar 8
Full
Mar 14
Last Quarter
Mar 22
New
Mar 30
First Quarter

Hourly Weather History & Observations

Time (EST) Temp. Windchill Dew Point Humidity Pressure Visibility Wind Dir Wind Speed Gust Speed Precip Events Conditions
12:25 AM 33.8 °F 22.8 °F 26.6 °F 75% 29.52 in 3.0 mi WSW 18.4 mph 25.3 mph 0.00 in Snow Light Snow
12:32 AM 33.8 °F 23.2 °F 26.6 °F 75% 29.52 in 2.5 mi WSW 17.3 mph 23.0 mph 0.00 in Snow Light Snow
12:41 AM 33.8 °F 24.3 °F 26.6 °F 75% 29.53 in 4.0 mi WSW 13.8 mph 26.5 mph 0.00 in Snow Light Snow
12:53 AM 33.1 °F 23.0 °F 27.0 °F 78% 29.55 in 8.0 mi WSW 15.0 mph 26.5 mph 0.00 in Snow Light Snow
1:35 AM 33.8 °F 25.3 °F 26.6 °F 75% 29.55 in 10.0 mi West 11.5 mph - 0.00 in   Overcast
1:53 AM 33.1 °F 24.9 °F 26.1 °F 75% 29.57 in 10.0 mi WSW 10.4 mph 21.9 mph 0.00 in   Overcast
2:25 AM 33.8 °F 24.8 °F 24.8 °F 70% 29.57 in 10.0 mi WSW 12.7 mph 19.6 mph N/A   Overcast
2:53 AM 28.0 °F 20.0 °F 23.0 °F 81% 29.59 in 6.0 mi NW 8.1 mph - 0.00 in Snow Light Snow
3:31 AM 26.6 °F 17.5 °F 21.2 °F 80% 29.58 in 8.0 mi NW 9.2 mph - 0.00 in Snow Light Snow
3:53 AM 25.0 °F 13.6 °F 18.0 °F 75% 29.61 in 10.0 mi NW 12.7 mph - 0.00 in   Overcast
4:53 AM 24.1 °F 15.2 °F 15.1 °F 69% 29.63 in 10.0 mi WNW 8.1 mph - N/A   Overcast
5:53 AM 23.0 °F 14.7 °F 14.0 °F 68% 29.65 in 10.0 mi WNW 6.9 mph - N/A   Overcast
6:53 AM 21.9 °F 11.7 °F 12.9 °F 68% 29.66 in 10.0 mi NW 9.2 mph - N/A   Mostly Cloudy
7:21 AM 21.2 °F 10.9 °F 12.2 °F 68% 29.65 in 10.0 mi NW 9.2 mph - N/A   Overcast
7:53 AM 21.0 °F 10.6 °F 10.9 °F 65% 29.68 in 10.0 mi NNW 9.2 mph - N/A   Overcast
8:11 AM 19.4 °F 7.9 °F 10.4 °F 68% 29.66 in 10.0 mi NW 10.4 mph - N/A   Mostly Cloudy
8:53 AM 19.9 °F 9.3 °F 8.1 °F 60% 29.68 in 10.0 mi WNW 9.2 mph - N/A   Overcast
9:53 AM 19.9 °F 10.1 °F 9.0 °F 62% 29.69 in 10.0 mi WNW 8.1 mph - N/A   Overcast
10:53 AM 19.9 °F 10.1 °F 10.9 °F 68% 29.68 in 3.0 mi NW 8.1 mph - 0.00 in Snow Light Snow
11:02 AM 19.4 °F 9.5 °F 12.2 °F 74% 29.67 in 2.5 mi NW 8.1 mph - 0.00 in Snow Light Snow
11:18 AM 19.4 °F 8.6 °F 10.4 °F 68% 29.67 in 4.0 mi NW 9.2 mph - 0.00 in Snow Light Snow
11:53 AM 19.0 °F 9.0 °F 10.9 °F 71% 29.70 in 5.0 mi WNW 8.1 mph - 0.00 in Snow Light Snow
12:11 PM 19.4 °F 11.5 °F 12.2 °F 74% 29.67 in 2.5 mi WNW 5.8 mph - 0.00 in Snow Light Snow
12:19 PM 19.4 °F 8.6 °F 10.4 °F 68% 29.67 in 3.0 mi West 9.2 mph - 0.00 in Snow Light Snow
12:29 PM 19.4 °F 7.9 °F 10.4 °F 68% 29.67 in 2.5 mi WNW 10.4 mph - 0.00 in Snow Light Snow
12:45 PM 19.4 °F 8.6 °F 10.4 °F 68% 29.66 in 4.0 mi NW 9.2 mph - 0.00 in Snow Light Snow
12:53 PM 19.9 °F 10.1 °F 10.9 °F 68% 29.68 in 4.0 mi NW 8.1 mph - 0.00 in Snow Light Snow
1:53 PM 21.0 °F 9.9 °F 9.0 °F 60% 29.68 in 10.0 mi WNW 10.4 mph - 0.00 in   Overcast
2:53 PM 19.9 °F 7.9 °F 8.1 °F 60% 29.68 in 10.0 mi West 11.5 mph - N/A   Overcast
3:53 PM 19.0 °F 6.1 °F 6.1 °F 57% 29.69 in 10.0 mi WNW 12.7 mph - N/A   Overcast
4:53 PM 18.0 °F 4.8 °F 5.0 °F 57% 29.72 in 10.0 mi WNW 12.7 mph - N/A   Overcast
5:53 PM 16.0 °F 2.9 °F 6.1 °F 65% 29.75 in 9.0 mi WNW 11.5 mph - N/A   Overcast
6:53 PM 16.0 °F 2.3 °F 6.1 °F 65% 29.76 in 5.0 mi West 12.7 mph - 0.00 in Snow Light Snow
7:02 PM 15.8 °F 2.7 °F 6.8 °F 68% 29.74 in 3.0 mi WNW 11.5 mph - 0.00 in Snow Light Snow
7:15 PM 15.8 °F 2.1 °F 5.0 °F 62% 29.74 in 4.0 mi WNW 12.7 mph - 0.00 in Snow Light Snow
7:53 PM 14.0 °F -0.2 °F 3.9 °F 64% 29.78 in 7.0 mi WNW 12.7 mph - 0.00 in Snow Light Snow
8:53 PM 12.0 °F 1.5 °F 3.9 °F 70% 29.80 in 8.0 mi West 6.9 mph - N/A   Overcast
9:53 PM 10.9 °F -3.4 °F 5.0 °F 77% 29.81 in 10.0 mi West 11.5 mph - 0.00 in   Overcast
10:02 PM 10.4 °F -4.1 °F 3.2 °F 73% 29.79 in 10.0 mi West 11.5 mph - N/A   Overcast
10:53 PM 10.0 °F -4.5 °F -0.0 °F 64% 29.82 in 8.0 mi WNW 11.5 mph - 0.00 in   Overcast
11:34 PM 8.6 °F -4.7 °F -0.4 °F 67% 29.80 in 10.0 mi WNW 9.2 mph - 0.00 in   Overcast
11:53 PM 8.1 °F -6.2 °F -0.9 °F 67% 29.83 in 10.0 mi WNW 10.4 mph - 0.00 in   Overcast